This is the latest recevied weather packets stored in our database for station/object KD2SIG. If no packets are shown the sender has not sent any weather packets the latest 10 day(s).
| Time | Temp. | Humidity | Pressure | Rain* | Wind** | Luminosity | Snow |
|---|---|---|---|---|---|---|---|
| 1777840226 | 10.56° C | 50% | 1010.5 hPa | 0 mm | - | 409 W/m² | - |
| 1777839924 | 11.11° C | 49% | 1010.8 hPa | 0 mm | - | 367 W/m² | - |
| 1777839622 | 11.11° C | 48% | 1010.6 hPa | 0 mm | - | 538 W/m² | - |
| 1777839320 | 11.67° C | 47% | 1010.9 hPa | 0 mm | - | 333 W/m² | - |
| 1777839017 | 11.11° C | 49% | 1010.5 hPa | 0 mm | - | 547 W/m² | - |
| 1777838713 | 11.11° C | 48% | 1010.7 hPa | 0 mm | - | 559 W/m² | - |
| 1777838410 | 11.11° C | 49% | 1010.7 hPa | 0 mm | - | 560 W/m² | - |
| 1777838107 | 11.11° C | 49% | 1010.8 hPa | 0 mm | - | 614 W/m² | - |
| 1777837803 | 10.56° C | 52% | 1010.9 hPa | 0 mm | - | 551 W/m² | - |
| 1777837501 | 10.56° C | 49% | 1010.7 hPa | 0 mm | - | 401 W/m² | - |
| 1777837195 | 10.56° C | 52% | 1010.8 hPa | 0 mm | - | 264 W/m² | - |
| 1777836891 | 11.67° C | 48% | 1011 hPa | 0 mm | - | 377 W/m² | - |
| 1777836587 | 11.67° C | 48% | 1011 hPa | 0 mm | - | 517 W/m² | - |
| 1777836284 | 10.56° C | 47% | 1011.1 hPa | 0 mm | - | 383 W/m² | - |
| 1777835979 | 11.67° C | 46% | 1011.2 hPa | 0 mm | - | 503 W/m² | - |
| 1777835677 | 11.11° C | 45% | 1011.3 hPa | 0 mm | - | 606 W/m² | - |
| 1777835373 | 11.11° C | 44% | 1011.4 hPa | 0 mm | - | 647 W/m² | - |
| 1777835071 | 11.11° C | 43% | 1011.5 hPa | 0 mm | - | 653 W/m² | - |
| 1777834767 | 11.67° C | 43% | 1011.3 hPa | 0 mm | - | 655 W/m² | - |
| 1777834464 | 10.56° C | 45% | 1011.7 hPa | 0 mm | - | 679 W/m² | - |
| 1777834163 | 10.56° C | 43% | 1011.4 hPa | 0 mm | - | 673 W/m² | - |
| 1777833860 | 11.11° C | 43% | 1011.7 hPa | 0 mm | - | 680 W/m² | - |
| 1777833556 | 11.67° C | 41% | 1011.8 hPa | 0 mm | - | 694 W/m² | - |
| 1777833253 | 10.56° C | 41% | 1011.8 hPa | 0 mm | - | 709 W/m² | - |
| 1777832950 | 11.11° C | 42% | 1011.6 hPa | 0 mm | - | 710 W/m² | - |
* Rain latest hour (hover to see other rain measurements)
** Current wind speed in m/s (hover to see current wind gust speed)